Hourly Weather Gitega

Today, 31 October, Saturday

Time Temperature Precipitation Wind Pressure Humidity
00:00 +16°C° 0 mm 0 mps 622 mmHg 87%
01:00 +16°C° 0 mm 0 mps 622 mmHg 87%
02:00 +15°C° 0 mm 0 mps 621 mmHg 85%
03:00 +15°C° 0 mm 0 mps 622 mmHg 86%
04:00 +15°C° 0 mm 0 mps 622 mmHg 87%
05:00 +15°C° 0 mm 0 mps 622 mmHg 88%
06:00 +16°C° 0.1 mm 0 mps 623 mmHg 84%
07:00 +19°C° 0.1 mm 1 mps 624 mmHg 81%
08:00 +20°C° 0 mm 1 mps 625 mmHg 79%
09:00 +21°C° 0.4 mm 1 mps 625 mmHg 75%
10:00 +23°C° 0.4 mm 2 mps 625 mmHg 71%
11:00 +24°C° 0.4 mm 3 mps 625 mmHg 67%
12:00 +24°C° 1.1 mm 3 mps 624 mmHg 67%
13:00 +24°C° 1.1 mm 3 mps 624 mmHg 67%
14:00 +24°C° 0 mm 3 mps 623 mmHg 67%
15:00 +23°C° 1.1 mm 2 mps 623 mmHg 71%
16:00 +21°C° 1.1 mm 2 mps 622 mmHg 76%
17:00 +22°C° 1.1 mm 1 mps 622 mmHg 80%
18:00 +21°C° 0.4 mm 1 mps 622 mmHg 81%
19:00 +20°C° 0.4 mm 1 mps 623 mmHg 82%
20:00 +18°C° 0.4 mm 0 mps 623 mmHg 83%
21:00 +17°C° 0 mm 0 mps 623 mmHg 84%
22:00 +17°C° 0 mm 0 mps 622 mmHg 85%
23:00 +16°C° 0 mm 0 mps 622 mmHg 85%

Tomorrow, 1 November, Sunday

Time Temperature Precipitation Wind Pressure Humidity
00:00 +16°C° 0 mm 0 mps 622 mmHg 86%
01:00 +16°C° 0 mm 0 mps 621 mmHg 86%
02:00 +15°C° 0 mm 0 mps 621 mmHg 86%
03:00 +15°C° 0 mm 0 mps 621 mmHg 87%
04:00 +15°C° 0 mm 0 mps 621 mmHg 87%
05:00 +15°C° 0 mm 0 mps 621 mmHg 87%
06:00 +16°C° 0 mm 0 mps 622 mmHg 82%
07:00 +18°C° 0 mm 0 mps 623 mmHg 78%
08:00 +20°C° 0 mm 0 mps 624 mmHg 74%
09:00 +23°C° 0 mm 1 mps 624 mmHg 67%
10:00 +24°C° 0 mm 2 mps 625 mmHg 61%
11:00 +26°C° 0 mm 3 mps 625 mmHg 55%
12:00 +26°C° 0.4 mm 3 mps 624 mmHg 56%
13:00 +26°C° 0.4 mm 3 mps 623 mmHg 57%
14:00 +26°C° 0.4 mm 3 mps 622 mmHg 58%
15:00 +25°C° 1.1 mm 3 mps 622 mmHg 64%
16:00 +24°C° 1.1 mm 2 mps 622 mmHg 69%
17:00 +23°C° 1.1 mm 1 mps 622 mmHg 74%
18:00 +22°C° 0.7 mm 1 mps 622 mmHg 77%
19:00 +21°C° 0.7 mm 1 mps 622 mmHg 79%
20:00 +20°C° 0.7 mm 1 mps 622 mmHg 81%
21:00 +20°C° 0.2 mm 1 mps 622 mmHg 83%
22:00 +19°C° 0.2 mm 1 mps 622 mmHg 85%
23:00 +18°C° 0.2 mm 1 mps 622 mmHg 87%

Day after tomorrow, 2 November, Monday

Time Temperature Precipitation Wind Pressure Humidity
00:00 +18°C° 0 mm 1 mps 621 mmHg 86%
01:00 +18°C° 0 mm 1 mps 621 mmHg 86%
02:00 +16°C° 0 mm 0 mps 621 mmHg 86%
03:00 +16°C° 0.1 mm 0 mps 621 mmHg 86%
04:00 +16°C° 0.1 mm 0 mps 621 mmHg 86%
05:00 +16°C° 0.1 mm 0 mps 622 mmHg 87%
06:00 +17°C° 0.2 mm 0 mps 622 mmHg 85%
07:00 +18°C° 0.2 mm 0 mps 623 mmHg 83%
08:00 +19°C° 0.2 mm 0 mps 624 mmHg 82%
09:00 +22°C° 0.5 mm 1 mps 624 mmHg 77%
10:00 +23°C° 0.5 mm 2 mps 624 mmHg 72%
11:00 +24°C° 0.5 mm 3 mps 624 mmHg 67%
12:00 +24°C° 1.3 mm 3 mps 624 mmHg 67%
13:00 +25°C° 1.3 mm 3 mps 623 mmHg 68%
14:00 +25°C° 1.3 mm 3 mps 622 mmHg 69%
15:00 +24°C° 1.3 mm 2 mps 622 mmHg 74%
16:00 +21°C° 1.3 mm 2 mps 621 mmHg 78%
17:00 +21°C° 1.3 mm 1 mps 621 mmHg 83%
18:00 +21°C° 0.1 mm 1 mps 621 mmHg 84%
19:00 +20°C° 0.1 mm 1 mps 622 mmHg 84%
20:00 +20°C° 0.1 mm 1 mps 622 mmHg 85%
21:00 +19°C° 0 mm 1 mps 622 mmHg 85%
22:00 +19°C° 0 mm 1 mps 622 mmHg 85%
23:00 +19°C° 0 mm 1 mps 622 mmHg 85%

3 November, Tuesday

Time Temperature Precipitation Wind Pressure Humidity
00:00 +19°C° 0 mm 1 mps 622 mmHg 84%
01:00 +17°C° 0 mm 0 mps 621 mmHg 84%
02:00 +17°C° 0 mm 0 mps 621 mmHg 84%
03:00 +17°C° 0 mm 0 mps 622 mmHg 84%
04:00 +16°C° 0 mm 0 mps 622 mmHg 85%
05:00 +16°C° 0 mm 0 mps 622 mmHg 85%
06:00 +18°C° 0 mm 0 mps 623 mmHg 81%
07:00 +21°C° 0 mm 1 mps 624 mmHg 78%
08:00 +22°C° 0 mm 1 mps 625 mmHg 74%
09:00 +23°C° 0.2 mm 2 mps 625 mmHg 69%
10:00 +24°C° 0.2 mm 2 mps 625 mmHg 64%
11:00 +26°C° 0.2 mm 3 mps 625 mmHg 59%
12:00 +26°C° 0.6 mm 3 mps 624 mmHg 59%
13:00 +26°C° 0.6 mm 3 mps 624 mmHg 59%
14:00 +26°C° 0.6 mm 3 mps 623 mmHg 58%
15:00 +25°C° 0.7 mm 2 mps 623 mmHg 63%
16:00 +25°C° 0.7 mm 1 mps 622 mmHg 68%
17:00 +22°C° 0.7 mm 0 mps 622 mmHg 73%
18:00 +22°C° 0.1 mm 1 mps 622 mmHg 77%
19:00 +21°C° 0.1 mm 1 mps 622 mmHg 80%
20:00 +19°C° 0.1 mm 1 mps 622 mmHg 84%
21:00 +19°C° 0 mm 1 mps 622 mmHg 84%
22:00 +19°C° 0 mm 1 mps 622 mmHg 84%
23:00 +19°C° 0 mm 1 mps 622 mmHg 84%

4 November, Wednesday

Time Temperature Precipitation Wind Pressure Humidity
00:00 +18°C° 0 mm 1 mps 622 mmHg 83%
01:00 +18°C° 0 mm 1 mps 621 mmHg 83%
02:00 +18°C° 0 mm 1 mps 621 mmHg 83%
03:00 +18°C° 0 mm 1 mps 622 mmHg 83%
04:00 +18°C° 0 mm 1 mps 622 mmHg 83%
05:00 +16°C° 0 mm 1 mps 622 mmHg 84%
06:00 +19°C° 0.1 mm 1 mps 623 mmHg 80%
07:00 +21°C° 0.1 mm 1 mps 624 mmHg 77%
08:00 +22°C° 0.1 mm 1 mps 625 mmHg 74%
09:00 +23°C° 0.2 mm 1 mps 625 mmHg 68%
10:00 +24°C° 0.2 mm 2 mps 625 mmHg 63%
11:00 +26°C° 0.2 mm 3 mps 625 mmHg 58%
12:00 +26°C° 0.1 mm 3 mps 624 mmHg 56%
13:00 +26°C° 0.1 mm 3 mps 623 mmHg 54%
14:00 +27°C° 0.1 mm 3 mps 623 mmHg 52%
15:00 +26°C° 0.1 mm 2 mps 622 mmHg 57%
16:00 +25°C° 0.1 mm 2 mps 622 mmHg 61%
17:00 +24°C° 0.1 mm 2 mps 621 mmHg 65%
18:00 +23°C° 0 mm 1 mps 621 mmHg 69%
19:00 +21°C° 0 mm 1 mps 621 mmHg 72%
20:00 +20°C° 0 mm 1 mps 621 mmHg 76%
21:00 +19°C° 0 mm 1 mps 621 mmHg 77%
22:00 +19°C° 0 mm 1 mps 621 mmHg 78%
23:00 +19°C° 0 mm 1 mps 621 mmHg 79%

5 November, Thursday

Time Temperature Precipitation Wind Pressure Humidity
00:00 +18°C° 0 mm 1 mps 621 mmHg 78%
01:00 +18°C° 0 mm 1 mps 621 mmHg 78%
02:00 +18°C° 0 mm 1 mps 620 mmHg 77%
03:00 +18°C° 0 mm 1 mps 620 mmHg 77%
04:00 +15°C° 0 mm 0 mps 621 mmHg 77%
05:00 +15°C° 0 mm 0 mps 621 mmHg 77%
06:00 +19°C° 0 mm 1 mps 622 mmHg 73%
07:00 +21°C° 0 mm 1 mps 623 mmHg 69%
08:00 +23°C° 0 mm 1 mps 624 mmHg 65%
09:00 +24°C° 0.1 mm 2 mps 624 mmHg 61%
10:00 +25°C° 0.1 mm 2 mps 624 mmHg 57%
11:00 +26°C° 0.1 mm 2 mps 624 mmHg 53%
12:00 +26°C° 0.8 mm 2 mps 624 mmHg 56%
13:00 +26°C° 0.8 mm 2 mps 623 mmHg 58%
14:00 +26°C° 0.8 mm 2 mps 622 mmHg 61%
15:00 +25°C° 1.3 mm 2 mps 621 mmHg 66%
16:00 +24°C° 1.3 mm 1 mps 621 mmHg 71%
17:00 +23°C° 1.3 mm 1 mps 621 mmHg 76%
18:00 +22°C° 0.1 mm 1 mps 621 mmHg 79%
19:00 +21°C° 0.1 mm 1 mps 621 mmHg 81%
20:00 +19°C° 0.1 mm 1 mps 621 mmHg 83%
21:00 +19°C° 0 mm 1 mps 621 mmHg 83%
22:00 +19°C° 0 mm 1 mps 621 mmHg 84%
23:00 +18°C° 0 mm 1 mps 621 mmHg 84%
Show more

We Need Your Consent

Meteoprog and our Service Providers may store and access personal data such as cookies, device identifiers or other similar technologies on your device and process such data to personalise content and ads, as well as provide social media features and to analyse the traffic.

  • Store and/or access information on your device

    Cookies, device identifiers or other information can be stored or accessed on your device for the purposes indicated above.

  • Personalised ads and content, ad and content measurement, audience insights, and products development

    Ads and content can be personalised based on a profile. More data can be added to better personalise ads and content. Ad and content performance can be measured. Insights about the audience who saw the ads and content can be derived. Such data can be used to develop or improve user’s experience, systems and software.

By clicking ‘I Agree’ you will allow the use of indicated cookies, device identifiers, web beacons or other similar technologies. Your settings can be changed in the browser on your device.

For certain purposes, legitimate interests may be relied on, rather than consent. You can read more about this in our Privacy and Cookie Policy.